TimeEDT,TemperatureF,Dew PointF,Humidity,Sea Level PressureIn,VisibilityMPH,Wind Direction,Wind SpeedMPH,Gust SpeedMPH,PrecipitationIn,Events,Conditions,WindDirDegrees,DateUTC
12:54 AM,51.1,35.1,54,30.17,10.0,NW,13.8,21.9,N/A,,Clear,320,2012-10-11 04:54:00
1:54 AM,51.1,33.1,50,30.20,10.0,NNW,3.5,-,N/A,,Clear,330,2012-10-11 05:54:00
2:54 AM,45.0,34.0,65,30.20,10.0,NW,6.9,-,N/A,,Clear,320,2012-10-11 06:54:00
3:54 AM,46.9,33.1,59,30.22,10.0,Calm,Calm,-,N/A,,Clear,0,2012-10-11 07:54:00
4:54 AM,46.0,32.0,58,30.24,10.0,NNW,4.6,-,N/A,,Clear,330,2012-10-11 08:54:00
5:54 AM,45.0,32.0,60,30.26,10.0,North,3.5,-,N/A,,Clear,350,2012-10-11 09:54:00
6:54 AM,43.0,32.0,65,30.28,10.0,Calm,Calm,-,N/A,,Clear,0,2012-10-11 10:54:00
7:54 AM,43.0,32.0,65,30.30,10.0,Calm,Calm,-,N/A,,Clear,0,2012-10-11 11:54:00
8:54 AM,46.9,32.0,56,30.31,10.0,Calm,Calm,-,N/A,,Clear,0,2012-10-11 12:54:00
9:54 AM,50.0,30.9,48,30.32,10.0,West,3.5,-,N/A,,Clear,260,2012-10-11 13:54:00
10:54 AM,52.0,33.1,49,30.32,10.0,Calm,Calm,-,N/A,,Clear,0,2012-10-11 14:54:00
11:54 AM,55.0,34.0,45,30.32,10.0,Calm,Calm,-,N/A,,Clear,0,2012-10-11 15:54:00
12:54 PM,57.9,33.1,39,30.29,10.0,Variable,3.5,-,N/A,,Clear,0,2012-10-11 16:54:00
1:54 PM,61.0,34.0,36,30.26,10.0,SSE,4.6,-,N/A,,Clear,150,2012-10-11 17:54:00
2:54 PM,63.0,34.0,34,30.24,10.0,Calm,Calm,-,N/A,,Clear,0,2012-10-11 18:54:00
3:54 PM,64.0,39.0,40,30.22,10.0,ESE,6.9,-,N/A,,Clear,120,2012-10-11 19:54:00
4:54 PM,64.0,39.0,40,30.21,10.0,SE,8.1,-,N/A,,Clear,130,2012-10-11 20:54:00
5:54 PM,62.6,39.2,42,30.22,10.0,SSE,9.2,-,N/A,,Clear,160,2012-10-11 21:54:00
6:54 PM,57.0,37.9,49,30.22,10.0,SSE,6.9,-,N/A,,Clear,150,2012-10-11 22:54:00
7:54 PM,57.9,37.0,46,30.23,10.0,Calm,Calm,-,N/A,,Clear,0,2012-10-11 23:54:00
8:54 PM,55.9,37.9,51,30.23,10.0,ESE,3.5,-,N/A,,Clear,120,2012-10-12 00:54:00
9:54 PM,53.1,37.9,57,30.24,10.0,Calm,Calm,-,N/A,,Clear,0,2012-10-12 01:54:00
10:54 PM,48.9,39.9,71,30.23,10.0,Calm,Calm,-,N/A,,Clear,0,2012-10-12 02:54:00
11:54 PM,46.0,39.9,79,30.23,10.0,Calm,Calm,-,N/A,,Clear,0,2012-10-12 03:54:00